DW2715 Weather Reports


Display with metric or nautical units.
time (UTC)temp
F
wind
direction
speed
MPH
gust
MPH
rain 1hr
in
rain 24hr
in
rain mn
in
humidity
%
barometer
mb
20190323161926 72 166 0.0 3.0 0.00 0.00 0.00 32 1022.3
20190323160914 72 137 0.0 2.0 0.00 0.00 0.00 31 1022.3
20190323155852 72 133 1.0 7.0 0.00 0.00 0.00 31 1022.2
20190323154841 72 162 1.0 7.0 0.00 0.00 0.00 32 1022.3
20190323153814 72 157 1.0 7.0 0.00 0.00 0.00 32 1022.4
20190323152804 72 109 1.0 8.0 0.00 0.00 0.00 32 1022.4
20190323151741 71 103 2.0 8.0 0.00 0.00 0.00 32 1022.4
20190323150727 72 103 1.0 7.0 0.00 0.00 0.00 31 1022.6
20190323145742 72 189 1.0 7.0 0.00 0.00 0.00 31 1022.6
20190323144746 72 165 1.0 8.0 0.00 0.00 0.00 32 1022.7
20190323143719 72 152 2.0 8.0 0.00 0.00 0.00 33 1022.7
20190323142700 72 89 2.0 8.0 0.00 0.00 0.00 31 1022.7
20190323141633 72 118 3.0 9.0 0.00 0.00 0.00 32 1022.6
20190323140641 72 123 3.0 9.0 0.00 0.00 0.00 30 1022.8
20190323135609 72 139 4.0 11.0 0.00 0.00 0.00 31 1022.8
20190323134547 73 119 3.0 11.0 0.00 0.00 0.00 31 1022.9
20190323133528 73 100 3.0 10.0 0.00 0.00 0.00 30 1023.1
20190323132532 73 137 2.0 9.0 0.00 0.00 0.00 31 1023.2
20190323131521 72 180 1.0 10.0 0.00 0.00 0.00 31 1023.3
20190323130511 72 78 2.0 9.0 0.00 0.00 0.00 31 1023.4
20190323125531 72 66 3.0 8.0 0.00 0.00 0.00 30 1023.5
20190323124516 72 59 4.0 10.0 0.00 0.00 0.00 30 1023.6
20190323123527 72 85 1.0 8.0 0.00 0.00 0.00 31 1023.6
20190323122515 72 134 1.0 8.0 0.00 0.00 0.00 32 1023.9
20190323121509 71 123 1.0 6.0 0.00 0.00 0.00 31 1024.0
20190323120530 71 159 2.0 10.0 0.00 0.00 0.00 33 1024.1
20190323115525 71 82 3.0 10.0 0.00 0.00 0.00 32 1024.2
20190323114515 71 150 3.0 9.0 0.00 0.00 0.00 31 1024.3
20190323113452 71 178 1.0 9.0 0.00 0.00 0.00 32 1024.3
20190323112419 71 168 2.0 9.0 0.00 0.00 0.00 30 1024.4
20190323111404 70 38 4.0 10.0 0.00 0.00 0.00 31 1024.5
20190323110335 70 120 3.0 10.0 0.00 0.00 0.00 32 1024.5
20190323105259 69 84 2.0 9.0 0.00 0.00 0.00 33 1024.6
20190323104237 68 76 0.0 6.0 0.00 0.00 0.00 33 1024.7
20190323103240 68 84 4.0 12.0 0.00 0.00 0.00 33 1024.7
20190323102222 68 68 1.0 10.0 0.00 0.00 0.00 33 1024.8
20190323101209 67 82 2.0 10.0 0.00 0.00 0.00 34 1024.8
20190323100133 67 40 2.0 4.0 0.00 0.00 0.00 34 1024.9
20190323095106 66 53 3.0 9.0 0.00 0.00 0.00 34 1024.9
20190323094055 66 47 2.0 5.0 0.00 0.00 0.00 35 1025.0
20190323093018 65 59 3.0 8.0 0.00 0.00 0.00 35 1025.1
20190323091959 65 32 4.0 8.0 0.00 0.00 0.00 36 1025.1
20190323090933 65 43 2.0 7.0 0.00 0.00 0.00 35 1025.2
20190323085906 64 11 2.0 0.0 0.00 0.00 0.00 36 1025.2
20190323084856 64 29 0.0 0.0 0.00 0.00 0.00 38 1025.3
20190323083915 63 35 3.0 7.0 0.00 0.00 0.00 38 1025.3
20190323082925 63 46 2.0 7.0 0.00 0.00 0.00 38 1025.2
20190323081934 62 38 2.0 7.0 0.00 0.00 0.00 39 1025.4
20190323080909 62 23 0.0 6.0 0.00 0.00 0.00 39 1025.2
20190323075926 61 34 2.0 0.0 0.00 0.00 0.00 42 1025.3
20190323074938 59 17 0.0 6.0 0.00 0.00 0.00 42 1025.4
20190323073954 58 19 0.0 0.0 0.00 0.00 0.00 42 1025.5
20190323073015 57 22 0.0 0.0 0.00 0.00 0.00 44 1025.3
20190323072017 56 350 0.0 0.0 0.00 0.00 0.00 48 1025.4
20190323071004 55 340 0.0 0.0 0.00 0.00 0.00 48 1025.4
20190323065953 54 340 0.0 0.0 0.00 0.00 0.00 49 1025.4
20190323064954 53 340 0.0 0.0 0.00 0.00 0.00 51 1025.4
20190323064015 51 340 0.0 0.0 0.00 0.00 0.00 53 1025.3
20190323063000 50 340 0.0 0.0 0.00 0.00 0.00 54 1025.4
20190323061958 49 320 0.0 0.0 0.00 0.00 0.00 56 1025.3
20190323061018 48 320 0.0 0.0 0.00 0.00 0.00 56 1025.3
20190323060025 48 355 0.0 0.0 0.00 0.00 0.00 57 1025.3
20190323055003 47 0 0.0 0.0 0.00 0.00 0.00 58 1025.4
20190323053927 46 333 0.0 0.0 0.00 0.00 0.00 61 1025.2
20190323052854 45 26 0.0 0.0 0.00 0.00 0.00 61 1025.2
20190323051831 45 26 0.0 0.0 0.00 0.00 0.00 61 1025.1
20190323050818 45 26 0.0 0.0 0.00 0.00 0.00 61 1025.0
20190323045815 45 26 0.0 0.0 0.00 0.00 0.00 61 1024.8
20190323044753 46 26 0.0 0.0 0.00 0.00 0.00 60 1025.0
20190323043747 46 26 0.0 0.0 0.00 0.00 0.00 59 1025.0
20190323042802 46 26 0.0 0.0 0.00 0.00 0.00 59 1024.9
20190323041740 46 26 0.0 0.0 0.00 0.00 0.00 59 1024.9
20190323040747 46 26 0.0 0.0 0.00 0.00 0.00 59 1024.9
20190323035718 46 26 0.0 0.0 0.00 0.00 0.00 60 1024.9
20190323034713 46 26 0.0 0.0 0.00 0.00 0.00 60 1025.0
20190323033653 46 26 0.0 0.0 0.00 0.00 0.00 60 1025.0
20190323032626 46 26 0.0 0.0 0.00 0.00 0.00 60 1025.1
20190323031637 46 26 0.0 0.0 0.00 0.00 0.00 60 1025.2
20190323030629 46 26 0.0 0.0 0.00 0.00 0.00 61 1025.1
20190323025621 46 26 0.0 0.0 0.00 0.00 0.00 60 1025.1
20190323024609 47 26 0.0 0.0 0.00 0.00 0.00 60 1025.1
20190323023608 47 26 0.0 0.0 0.00 0.00 0.00 58 1025.2
20190323022552 48 26 0.0 0.0 0.00 0.00 0.00 58 1025.2
20190323021518 48 26 0.0 0.0 0.00 0.00 0.00 56 1025.2
20190323020446 49 26 0.0 0.0 0.00 0.00 0.00 55 1025.2
20190323015449 49 26 0.0 0.0 0.00 0.00 0.00 55 1025.2
20190323014506 49 26 0.0 0.0 0.00 0.00 0.00 54 1025.4
20190323013446 49 26 0.0 0.0 0.00 0.00 0.00 54 1025.4
20190323012433 49 26 0.0 0.0 0.00 0.00 0.00 53 1025.6
20190323011437 50 26 0.0 0.0 0.00 0.00 0.00 53 1025.5
20190323010410 50 26 0.0 0.0 0.00 0.00 0.00 52 1025.6
20190323005411 50 26 0.0 0.0 0.00 0.00 0.00 52 1025.6
20190323004430 51 26 0.0 0.0 0.00 0.00 0.00 51 1025.7
20190323003444 51 26 0.0 0.0 0.00 0.00 0.00 51 1025.8
20190323002426 50 26 0.0 0.0 0.00 0.00 0.00 52 1026.0
20190323001430 50 26 0.0 0.0 0.00 0.00 0.00 52 1026.1
20190323000409 50 26 0.0 0.0 0.00 0.00 0.00 53 1026.1
20190322235419 50 171 0.0 0.0 0.00 0.00 0.00 54 1026.2
20190322234418 50 171 0.0 0.0 0.00 0.00 0.00 53 1026.2
20190322233341 50 171 0.0 0.0 0.00 0.00 0.00 54 1026.1
20190322232310 49 171 0.0 0.0 0.00 0.00 0.00 54 1026.1
20190322231300 50 171 0.0 0.0 0.00 0.00 0.00 53 1026.2
20190322230244 50 171 0.0 0.0 0.00 0.00 0.00 52 1026.2
20190322225248 50 171 0.0 0.0 0.00 0.00 0.00 52 1026.2
20190322224212 50 171 0.0 0.0 0.00 0.00 0.00 51 1026.2
20190322223220 50 171 0.0 0.0 0.00 0.00 0.00 50 1026.3
20190322222144 51 171 0.0 0.0 0.00 0.00 0.00 49 1026.3
20190322221119 51 171 0.0 0.0 0.00 0.00 0.00 48 1026.3
20190322220046 51 171 0.0 0.0 0.00 0.00 0.00 48 1026.3
20190322215047 52 171 0.0 0.0 0.00 0.00 0.00 47 1026.3
20190322214020 52 171 0.0 0.0 0.00 0.00 0.00 46 1026.5
20190322213007 52 171 0.0 0.0 0.00 0.00 0.00 46 1026.4
20190322211943 53 171 0.0 0.0 0.00 0.00 0.00 45 1026.4
20190322210910 53 171 0.0 0.0 0.00 0.00 0.00 44 1026.4
20190322205916 54 171 0.0 0.0 0.00 0.00 0.00 43 1026.5
20190322204927 54 155 0.0 0.0 0.00 0.00 0.00 42 1026.5
20190322203916 54 155 0.0 0.0 0.00 0.00 0.00 41 1026.5
20190322202922 54 155 0.0 0.0 0.00 0.00 0.00 43 1026.5
20190322201934 54 128 0.0 0.0 0.00 0.00 0.00 45 1026.6
20190322200942 55 128 0.0 0.0 0.00 0.00 0.00 43 1026.5
20190322195936 56 128 0.0 0.0 0.00 0.00 0.00 43 1026.4
20190322194903 56 128 0.0 0.0 0.00 0.00 0.00 42 1026.5
20190322193901 57 128 0.0 0.0 0.00 0.00 0.00 41 1026.6
20190322192910 57 128 0.0 0.0 0.00 0.00 0.00 40 1026.5
20190322185446 58 128 0.0 0.0 0.00 0.00 0.00 38 1026.7
20190322184434 59 128 0.0 0.0 0.00 0.00 0.00 36 1026.7
20190322183431 60 128 0.0 0.0 0.00 0.00 0.00 34 1026.5
20190322182410 60 128 0.0 0.0 0.00 0.00 0.00 33 1026.4
20190322181342 61 128 0.0 0.0 0.00 0.00 0.00 31 1026.4
20190322180344 62 128 0.0 0.0 0.00 0.00 0.00 30 1026.4
20190322175311 63 128 0.0 0.0 0.00 0.00 0.00 28 1026.5
20190322174246 64 128 0.0 0.0 0.00 0.00 0.00 27 1026.5
20190322173239 64 128 0.0 0.0 0.00 0.00 0.00 26 1026.4
20190322172215 65 128 0.0 0.0 0.00 0.00 0.00 25 1026.4
20190322171210 66 128 0.0 0.0 0.00 0.00 0.00 25 1026.4
20190322170154 67 128 0.0 0.0 0.00 0.00 0.00 23 1026.4
20190322165158 67 128 0.0 2.0 0.00 0.00 0.00 22 1026.4
20190322164137 67 128 0.0 0.0 0.00 0.00 0.00 21 1026.5
20190322163150 68 128 0.0 0.0 0.00 0.00 0.00 21 1026.5
20190322162154 68 134 0.0 5.0 0.00 0.00 0.00 20 1026.4